Starlink 31886

operational
NORAD ID: 59662 Int'l Des: 2024-084 Owner: SPXS Country: US Constellation: starlink
LEOCIRCULAR

关于 Starlink 31886

正在加载描述...

实时位置

正在加载3D地球...

即将过境

高度历史

Altitude vs Time

uPlot chart will show altitude changes over time

两行轨道根数

1 59662U 24084J 25351.44831662 -.00002601 00000-0 -85023-4 0 9999
2 59662 43.0007 146.4027 0001193 256.6848 103.3870 15.27587773 91791
Epoch: Dec 17, 2025 • Age: 10 hours

当前状态

高度 483.8 km
速度 7.62 km/s
星下点 -7.78°S, 69.51°W
发射日期 May 6, 2024
运行时间 1.6 years
类型 internet

技术详情

分类 Payload
质量 730.00 kg
干质量 700.00 kg
总质量 730.00 kg
长度 0.30 m
直径 4.10 m
跨度 29.00 m
形状 Box + pan
制造商 SPXS
平台类型 Starlink V2M
阶段状态 In Orbit
所有者/国家 SPXS/US

大型星座

Loading constellations...